Simultaneous Nadir Overpasses (SNOs) Predictions

Prediction of SNOs between AURA and NPP Satellite Orbit:

Table of predicted SNOs for the next 14.0 days since TLE Epoch: 2/18/2017
Index Date (AURA) Time (AURA) Lat,Lon (AURA) SZA (AURA ) Date (NPP) Time (NPP) Lat,Lon (NPP) SZA (NPP ) Distance(km) Time Diff (sec)
1 02/20/2017 11:25:01 -79.68, 86.97 76.71 02/20/2017 11:24:37 -79.69, 87.11 76.72 2.93 24
2 02/20/2017 12:14:22 79.86,-104.03 103.01 02/20/2017 12:15:16 79.86,-103.98 102.96 0.96 54
3 02/23/2017 03:41:31 -79.68,-157.15 77.68 02/23/2017 03:41:31 -79.67,-157.25 77.66 2.03 0
4 02/25/2017 19:08:38 79.51, 149.88 101.59 02/25/2017 19:07:44 79.51, 149.83 101.64 1.02 54
5 02/25/2017 19:57:58 -79.78, -40.49 78.83 02/25/2017 19:58:21 -79.78, -40.49 78.85 0.14 23
6 02/28/2017 11:25:04 79.64, -93.27 100.38 02/28/2017 11:24:33 79.65, -93.19 100.38 1.62 31
7 02/28/2017 12:14:25 -79.88, 76.13 80.00 02/28/2017 12:15:11 -79.88, 76.28 80.06 2.91 46
8 03/03/2017 03:41:32 79.66, 22.75 99.32 03/03/2017 03:41:25 79.66, 22.67 99.34 1.52 7




NCC Satellite Simultaneous Nadir Overpasses (SNOs) Prediction Service
